DW4236 Weather Reports


time (UTC)temp
C
wind
direction
speed
KPH
gust
KPH
rain 1hr
cm
rain 24hr
cm
rain mn
cm
humidity
%
barometer
mb
20260831170104 24 151 0.0 0.0 0.00 0.08 0.00 75 1021.2
20260831165605 24 151 0.0 3.2 0.00 0.08 0.00 76 1021.2
20260831165104 24 151 0.0 3.2 0.00 0.08 0.00 77 1021.2
20260831164605 24 151 1.6 4.8 0.00 0.08 0.00 77 1021.2
20260831164105 24 151 0.0 0.0 0.00 0.08 0.00 76 1021.2
20260831163605 24 151 1.6 4.8 0.00 0.08 0.00 76 1021.1
20260831163105 24 151 1.6 3.2 0.00 0.08 0.00 76 1021.2
20260831162604 24 151 3.2 8.0 0.00 0.08 0.00 76 1021.2
20260831162105 24 176 3.2 4.8 0.00 0.08 0.00 76 1021.3
20260831161605 24 182 3.2 4.8 0.00 0.08 0.00 77 1021.3
20260831161104 24 182 1.6 12.9 0.00 0.08 0.00 75 1021.4
20260831160604 25 207 1.6 4.8 0.00 0.08 0.00 74 1021.5
20260831155604 24 133 3.2 12.9 0.00 0.08 0.00 75 1021.5
20260831154605 25 357 0.0 3.2 0.00 0.08 0.00 76 1021.6
20260831154105 25 357 0.0 4.8 0.00 0.08 0.00 76 1021.6
20260831153604 24 316 1.6 4.8 0.00 0.08 0.00 76 1021.7
20260831153104 24 329 1.6 4.8 0.00 0.08 0.00 77 1021.7
20260831152604 24 64 3.2 8.0 0.00 0.08 0.00 77 1021.8
20260831151604 23 66 3.2 9.7 0.00 0.08 0.00 77 1021.7
20260831151104 23 110 1.6 4.8 0.00 0.08 0.00 78 1021.7
20260831150605 23 92 4.8 9.7 0.00 0.08 0.00 79 1021.7
20260831150104 23 131 3.2 9.7 0.00 0.08 0.00 80 1021.7
20260831145605 23 114 4.8 11.3 0.00 0.08 0.00 81 1021.7
20260831145104 22 35 3.2 8.0 0.00 0.08 0.00 81 1021.8
20260831144604 22 55 3.2 12.9 0.00 0.08 0.00 81 1021.8
20260831144105 22 89 3.2 4.8 0.00 0.08 0.00 81 1021.8
20260831143604 22 54 1.6 8.0 0.00 0.08 0.00 82 1021.9
20260831143104 22 11 4.8 9.7 0.00 0.08 0.00 81 1021.9
20260831142604 22 59 1.6 8.0 0.00 0.08 0.00 82 1021.9
20260831142105 22 106 1.6 4.8 0.00 0.08 0.00 82 1022.0
20260831141603 22 34 3.2 4.8 0.00 0.08 0.00 82 1022.0
20260831141104 22 100 4.8 11.3 0.00 0.08 0.00 83 1022.2
20260831140604 22 32 4.8 12.9 0.00 0.08 0.00 82 1022.1
20260831140104 22 81 3.2 4.8 0.00 0.08 0.00 84 1021.8
20260831135604 22 13 4.8 11.3 0.00 0.08 0.00 84 1021.7
20260831135104 22 61 3.2 8.0 0.00 0.08 0.00 85 1021.7
20260831134105 21 61 3.2 12.9 0.00 0.08 0.00 86 1021.8
20260831133104 21 97 3.2 9.7 0.00 0.08 0.00 88 1021.8
20260831132604 21 67 3.2 8.0 0.00 0.08 0.00 88 1021.8
20260831132105 21 25 3.2 9.7 0.00 0.08 0.00 89 1021.8
20260831131604 21 113 1.6 9.7 0.00 0.08 0.00 90 1021.7
20260831131104 20 113 1.6 9.7 0.00 0.08 0.00 90 1021.7
20260831130603 20 109 3.2 9.7 0.00 0.08 0.00 92 1021.9
20260831130104 20 125 4.8 12.9 0.00 0.08 0.00 92 1021.9
20260831125605 20 106 3.2 8.0 0.00 0.08 0.00 94 1021.9
20260831125104 20 17 1.6 8.0 0.00 0.08 0.00 95 1021.9
20260831124604 20 20 0.0 1.6 0.00 0.08 0.00 95 1021.8
20260831124104 20 20 0.0 1.6 0.00 0.08 0.00 95 1021.8
20260831123603 20 20 0.0 4.8 0.00 0.08 0.00 95 1021.6
20260831123104 20 255 0.0 1.6 0.00 0.08 0.00 95 1021.5
20260831122604 20 244 1.6 4.8 0.00 0.08 0.00 96 1021.6
20260831121104 19 258 0.0 0.0 0.00 0.08 0.00 96 1021.9
20260831120604 19 258 0.0 0.0 0.00 0.08 0.00 96 1021.9
20260831120104 19 258 0.0 0.0 0.00 0.08 0.00 96 1021.8
20260831115604 18 258 0.0 0.0 0.00 0.08 0.00 96 1021.7
20260831115105 18 258 0.0 0.0 0.00 0.08 0.00 96 1021.6
20260831114604 18 258 0.0 0.0 0.00 0.08 0.00 96 1021.8
20260831114103 18 258 0.0 0.0 0.00 0.08 0.00 96 1021.8
20260831113605 18 258 0.0 0.0 0.00 0.08 0.00 96 1021.7
20260831113103 18 258 0.0 0.0 0.00 0.08 0.00 96 1021.7
20260831112604 18 258 0.0 0.0 0.00 0.08 0.00 96 1021.5
20260831112104 17 258 0.0 0.0 0.00 0.08 0.00 96 1021.3
20260831111604 17 258 0.0 0.0 0.00 0.08 0.00 96 1021.3
20260831111105 17 258 0.0 0.0 0.00 0.08 0.00 96 1021.3
20260831110605 17 258 0.0 0.0 0.00 0.08 0.00 96 1021.4
20260831110105 17 258 0.0 0.0 0.00 0.08 0.00 96 1021.5
20260831105604 17 258 0.0 0.0 0.00 0.08 0.00 96 1021.3
20260831105104 17 258 0.0 0.0 0.00 0.08 0.00 95 1021.2
20260831104605 17 258 0.0 0.0 0.00 0.08 0.00 95 1021.1
20260831104104 17 258 0.0 0.0 0.00 0.08 0.00 95 1021.0
20260831103603 17 258 0.0 0.0 0.00 0.08 0.00 95 1021.0
20260831103104 17 258 0.0 0.0 0.00 0.08 0.00 95 1021.1
20260831102105 17 258 0.0 0.0 0.00 0.08 0.00 95 1021.0
20260831101103 17 258 0.0 0.0 0.00 0.08 0.00 95 1020.8
20260831100604 17 258 0.0 0.0 0.00 0.08 0.00 95 1020.8
20260831100104 17 258 0.0 0.0 0.00 0.08 0.00 95 1020.8
20260831095603 17 258 0.0 0.0 0.00 0.08 0.00 95 1020.8
20260831095105 17 258 0.0 0.0 0.00 0.08 0.00 95 1020.8
20260831094604 17 258 0.0 0.0 0.00 0.08 0.00 95 1020.7
20260831094104 17 258 0.0 0.0 0.00 0.08 0.00 95 1020.7
20260831093604 17 258 0.0 0.0 0.00 0.08 0.00 95 1020.6
20260831093104 17 258 0.0 0.0 0.00 0.08 0.00 95 1020.6
20260831092605 17 258 0.0 0.0 0.00 0.08 0.00 95 1020.7
20260831092105 17 258 0.0 0.0 0.00 0.08 0.00 95 1020.7
20260831091605 17 258 0.0 0.0 0.00 0.08 0.00 95 1020.7
20260831090604 17 258 0.0 0.0 0.00 0.08 0.00 95 1020.8
20260831090104 17 258 0.0 0.0 0.00 0.08 0.00 95 1020.8
20260831085104 17 258 0.0 0.0 0.00 0.08 0.00 95 1020.9
20260831084604 17 258 0.0 0.0 0.00 0.08 0.00 95 1020.8
20260831084104 17 258 0.0 0.0 0.00 0.08 0.00 94 1020.8
20260831083603 17 258 0.0 0.0 0.00 0.08 0.00 95 1020.7
20260831082604 17 258 0.0 0.0 0.00 0.08 0.00 94 1020.6
20260831082105 17 258 0.0 0.0 0.00 0.08 0.00 94 1020.7
20260831081604 17 258 0.0 0.0 0.00 0.08 0.00 94 1020.6
20260831081105 17 258 0.0 0.0 0.00 0.08 0.00 94 1020.7
20260831080605 17 258 0.0 0.0 0.00 0.08 0.00 94 1020.8
20260831080104 17 258 0.0 0.0 0.00 0.08 0.00 94 1020.7
20260831075604 17 258 0.0 0.0 0.00 0.08 0.00 94 1020.7
20260831074604 18 258 0.0 0.0 0.00 0.08 0.00 94 1020.7
20260831074104 18 258 0.0 0.0 0.00 0.08 0.00 94 1020.7
20260831073604 18 258 0.0 0.0 0.00 0.08 0.00 94 1020.5
20260831073104 18 258 0.0 0.0 0.00 0.08 0.00 94 1020.5
20260831072605 18 258 0.0 0.0 0.00 0.08 0.00 94 1020.5
20260831072104 18 258 0.0 0.0 0.00 0.08 0.00 94 1020.4
20260831071105 18 258 0.0 0.0 0.00 0.08 0.00 93 1020.6
20260831070605 18 258 0.0 0.0 0.00 0.08 0.00 94 1020.5
20260831070104 18 258 0.0 0.0 0.00 0.08 0.00 93 1020.4
20260831065604 18 258 0.0 3.2 0.00 0.08 0.00 93 1020.5
20260831064604 18 253 0.0 0.0 0.00 0.08 0.00 93 1020.4
20260831063605 18 253 0.0 0.0 0.00 0.08 0.00 93 1020.2
20260831063105 18 253 0.0 0.0 0.00 0.08 0.00 93 1020.2
20260831062604 18 253 0.0 0.0 0.00 0.08 0.00 93 1020.2
20260831062103 18 253 0.0 0.0 0.00 0.08 0.00 93 1020.2
20260831061605 18 253 0.0 0.0 0.00 0.08 0.00 93 1020.2
20260831060605 19 253 0.0 1.6 0.00 0.08 0.00 92 1020.1
20260831060104 19 255 0.0 0.0 0.00 0.08 0.00 92 1020.2
20260831055604 19 255 0.0 0.0 0.00 0.08 0.00 92 1020.1
20260831054604 19 255 1.6 3.2 0.00 0.08 0.00 93 1020.1
20260831054104 19 255 0.0 1.6 0.00 0.08 0.00 93 1020.2
20260831053604 19 255 0.0 0.0 0.00 0.08 0.00 93 1020.1
20260831053104 19 255 0.0 4.8 0.00 0.08 0.00 93 1020.2
20260831052605 19 255 1.6 3.2 0.00 0.08 0.00 93 1020.1
20260831052104 20 255 0.0 0.0 0.00 0.08 0.00 93 1020.0
20260831051604 20 255 0.0 0.0 0.00 0.08 0.00 93 1019.8
20260831041104 21 255 0.0 0.0 0.00 0.08 0.00 93 1019.9
20260831040604 21 255 0.0 0.0 0.00 0.08 0.00 93 1020.0
20260831040104 21 255 0.0 0.0 0.00 0.08 0.00 93 1020.1
20260831035104 21 255 0.0 0.0 0.00 0.08 0.08 93 1020.0
20260831034604 21 255 0.0 0.0 0.00 0.08 0.08 93 1020.0
20260831034103 21 255 0.0 0.0 0.00 0.08 0.08 93 1019.9
20260831033104 21 255 0.0 0.0 0.00 0.08 0.08 93 1020.0
20260831032604 21 255 1.6 4.8 0.00 0.08 0.08 93 1020.0
20260831032103 21 255 0.0 1.6 0.00 0.08 0.08 93 1020.1
20260831030604 21 255 1.6 3.2 0.00 0.08 0.08 93 1019.9
20260831030104 21 255 1.6 4.8 0.00 0.08 0.08 93 1019.9
20260831025604 21 255 1.6 3.2 0.00 0.08 0.08 93 1020.1
20260831025104 21 255 0.0 1.6 0.00 0.08 0.08 93 1020.1
20260831024604 21 255 0.0 1.6 0.03 0.08 0.08 93 1020.2
20260831024103 21 255 0.0 1.6 0.03 0.08 0.08 93 1020.2
20260831023605 21 255 1.6 4.8 0.03 0.08 0.08 93 1020.3
20260831023104 22 255 1.6 4.8 0.05 0.08 0.08 93 1020.2
20260831022103 22 254 0.0 3.2 0.05 0.08 0.08 93 1020.3
20260831021604 22 254 0.0 3.2 0.05 0.08 0.08 93 1020.3
20260831020105 22 254 1.6 4.8 0.05 0.08 0.08 93 1020.2
20260831015605 22 257 0.0 3.2 0.05 0.08 0.08 93 1020.1
20260831015104 22 259 0.0 4.8 0.05 0.08 0.08 93 1020.2
20260831014604 22 259 0.0 4.8 0.03 0.05 0.05 92 1020.2
20260831014104 22 275 0.0 0.0 0.03 0.05 0.05 92 1020.2
20260831013604 22 275 0.0 3.2 0.03 0.05 0.05 92 1020.1
20260831012604 22 269 3.2 4.8 0.00 0.03 0.03 92 1020.0
20260831012103 22 293 1.6 4.8 0.00 0.03 0.03 92 1019.8
20260831011604 22 275 0.0 4.8 0.03 0.03 0.03 92 1019.7
20260831010603 22 269 0.0 4.8 0.03 0.03 0.03 91 1019.6
20260831005604 22 269 0.0 3.2 0.03 0.03 0.03 91 1019.5
20260831004604 22 269 1.6 4.8 0.03 0.03 0.03 90 1019.4
20260831004104 22 264 1.6 4.8 0.03 0.03 0.03 90 1019.4
20260831003604 22 263 1.6 4.8 0.03 0.03 0.03 90 1019.4
20260831003104 22 282 0.0 3.2 0.03 0.03 0.03 90 1019.4
20260831002604 23 276 1.6 4.8 0.03 0.03 0.03 89 1019.3
20260831002105 23 272 0.0 4.8 0.03 0.03 0.03 89 1019.3
20260831001604 23 272 4.8 11.3 0.00 0.00 0.00 89 1019.2
20260831001104 23 247 1.6 4.8 0.00 0.00 0.00 88 1019.1
20260831000605 23 247 1.6 4.8 0.00 0.00 0.00 88 1019.1
20260831000105 23 247 1.6 4.8 0.00 0.00 0.00 88 1019.0
20260830235104 23 288 1.6 4.8 0.00 0.00 0.00 88 1018.8
20260830234603 23 289 1.6 8.0 0.00 0.00 0.00 87 1018.8
20260830234103 23 253 3.2 4.8 0.00 0.00 0.00 87 1018.7
20260830233104 23 278 0.0 0.0 0.00 0.00 0.00 86 1018.6
20260830232604 23 278 0.0 0.0 0.00 0.00 0.00 86 1018.6
20260830232104 23 278 0.0 1.6 0.00 0.00 0.00 86 1018.6
20260830231604 23 278 0.0 4.8 0.00 0.00 0.00 85 1018.5
20260830231104 23 274 1.6 3.2 0.00 0.00 0.00 85 1018.6
20260830230604 23 276 0.0 0.0 0.00 0.00 0.00 84 1018.6
20260830225604 23 274 1.6 9.7 0.00 0.00 0.00 84 1018.7
20260830225103 23 273 0.0 3.2 0.00 0.00 0.00 84 1018.7
20260830224604 24 272 3.2 4.8 0.00 0.00 0.00 84 1018.6
20260830224104 24 265 1.6 4.8 0.00 0.00 0.00 83 1018.7
20260830223603 24 263 3.2 4.8 0.00 0.00 0.00 83 1018.7
20260830223104 24 269 1.6 4.8 0.00 0.00 0.00 83 1018.8
20260830222604 24 253 0.0 1.6 0.00 0.00 0.00 83 1018.7
20260830222105 24 253 1.6 4.8 0.00 0.00 0.00 83 1018.7
20260830221604 24 255 1.6 4.8 0.00 0.00 0.00 83 1018.6
20260830221103 24 262 1.6 4.8 0.00 0.00 0.00 82 1018.7
20260830220604 24 263 3.2 4.8 0.00 0.00 0.00 82 1018.7
20260830220104 24 264 3.2 8.0 0.00 0.00 0.00 82 1018.7
20260830215604 24 269 3.2 4.8 0.00 0.00 0.00 82 1018.6
20260830215103 24 262 1.6 4.8 0.00 0.00 0.00 82 1018.6
20260830214604 24 284 4.8 9.7 0.00 0.00 0.00 82 1018.6
20260830214104 24 284 1.6 12.9 0.00 0.00 0.00 82 1018.6
20260830213604 24 256 1.6 4.8 0.00 0.00 0.00 82 1018.6
20260830213103 24 257 3.2 4.8 0.00 0.00 0.00 82 1018.6
20260830212604 24 284 3.2 8.0 0.00 0.00 0.00 82 1018.5
20260830212105 24 256 3.2 8.0 0.00 0.00 0.00 82 1018.5
20260830211604 24 261 0.0 4.8 0.00 0.00 0.00 83 1018.5
20260830211104 25 255 3.2 9.7 0.00 0.00 0.00 82 1018.5
20260830210604 25 290 1.6 4.8 0.00 0.00 0.00 82 1018.6
20260830210104 25 292 1.6 4.8 0.00 0.00 0.00 82 1018.6
20260830205603 25 286 0.0 9.7 0.00 0.00 0.00 82 1018.7
20260830204605 25 264 3.2 12.9 0.00 0.00 0.00 82 1018.7
20260830204104 25 253 3.2 4.8 0.00 0.00 0.00 82 1018.8
20260830203603 25 259 4.8 8.0 0.00 0.00 0.00 81 1018.9
20260830203105 25 250 0.0 1.6 0.00 0.00 0.00 82 1018.8
20260830202604 25 250 4.8 12.9 0.00 0.00 0.00 81 1018.7
20260830202104 25 240 6.4 12.9 0.00 0.00 0.00 81 1018.7
20260830201103 25 269 3.2 12.9 0.00 0.00 0.00 83 1019.0
20260830200604 24 259 1.6 4.8 0.00 0.00 0.00 83 1018.9
20260830200104 24 256 0.0 1.6 0.00 0.00 0.00 83 1018.9
20260830195104 25 185 1.6 4.8 0.00 0.00 0.00 82 1018.9
20260830194603 25 253 3.2 9.7 0.00 0.00 0.00 81 1018.9
20260830194105 25 221 3.2 11.3 0.00 0.00 0.00 81 1018.9
20260830193603 25 243 1.6 14.5 0.00 0.00 0.00 81 1019.0
20260830193104 25 250 4.8 14.5 0.00 0.00 0.00 80 1019.1
20260830192603 25 241 1.6 16.1 0.00 0.00 0.00 80 1019.2
20260830192104 25 267 8.0 19.3 0.00 0.00 0.00 79 1019.2
20260830191604 25 231 1.6 8.0 0.00 0.00 0.00 81 1019.2
20260830191105 25 246 3.2 8.0 0.00 0.00 0.00 81 1019.3
20260830190103 25 274 3.2 12.9 0.00 0.00 0.00 80 1019.7
20260830185104 25 189 1.6 8.0 0.00 0.00 0.00 79 1019.9
20260830184603 25 203 1.6 8.0 0.00 0.00 0.00 79 1020.0
20260830184103 25 284 3.2 8.0 0.00 0.00 0.00 80 1020.0
20260830183605 25 228 3.2 4.8 0.00 0.00 0.00 78 1019.9
20260830183104 25 220 3.2 4.8 0.00 0.00 0.00 78 1020.1
20260830182604 25 214 4.8 11.3 0.00 0.00 0.00 77 1020.2
20260830182103 25 244 1.6 3.2 0.00 0.00 0.00 77 1020.2
20260830181604 24 249 4.8 16.1 0.00 0.00 0.00 76 1020.3
20260830181104 25 198 1.6 11.3 0.00 0.00 0.00 75 1020.4
20260830180604 25 249 3.2 12.9 0.00 0.00 0.00 74 1020.4
20260830180104 25 251 4.8 11.3 0.00 0.00 0.00 74 1020.3
20260830175603 25 244 3.2 12.9 0.00 0.00 0.00 73 1020.3
20260830175104 25 267 1.6 16.1 0.00 0.00 0.00 73 1020.3
20260830174604 25 204 1.6 11.3 0.00 0.00 0.00 72 1020.3
20260830174105 25 235 1.6 9.7 0.00 0.00 0.00 72 1020.4
20260830173605 25 269 3.2 8.0 0.00 0.00 0.00 70 1020.5
20260830172103 25 289 4.8 16.1 0.00 0.00 0.00 69 1020.6
20260830171604 26 259 3.2 16.1 0.00 0.00 0.00 68 1020.7
20260830171104 26 255 6.4 16.1 0.00 0.00 0.00 67 1020.8
20260830170605 26 264 3.2 12.9 0.00 0.00 0.00 69 1020.8